Location: Corcelles
(46.1547°N, 4.7234°E)
Time: 20:59:27
(UTC+00:00)

Aureole 1 Rocket - Pass Details

Date: 14 July 2020
Orbit: 377 x 1380 km, 73.9° (Epoch: 14 August)

Event Time Altitude Azimuth Distance (km) Brightness Sun altitude
Exits shadow 02:26:03 19° 231° (SW) 1,591 4.5 -13.3°
Maximum altitude 02:29:15 50° 300° (WNW) 992 4.0 -12.9°
Drops below altitude 10° 02:35:12 10° 15° (NNE) 2,703 7.4 -12.3°
Sets 02:38:14 0° 20° (NNE) 3,828 8.6 -11.9°
